Flag for Germany Weather past 2 weeks in Mülheim, North Rhine-Westphalia, Germany

Now
25 °F

Passing clouds.


Feels Like: 18 °F
Forecast: 27 / 38 °F
Wind: 6 mph from Southeast

Location: Koeln / Bonn

Current Time: Dec 29, 2014 at 1:30:56 AM

Latest Report: Dec 29, 2014 at 12:50 AM


Visibility: N/A

Pressure: 30.51 "Hg

Humidity: 93%

Dew point: 23 °F

Location of MülheimLocation

Historic Weather in Mülheim — Graph

°F

Mülheim temperature yesterday

Maximum temperature yesterday: 30 °F (at 12:20 AM)
Minimum temperature yesterday: 18 °F (at 9:20 AM)
Average temperature yesterday: 24 °F

Past Weeks' High & Low Weather Summary

 TemperatureHumidityPressure
High55 °F (Dec 18, 5:20 PM)100% (Dec 14, 1:50 AM)30.54 "Hg (Dec 14, 1:50 AM)
Low18 °F (Dec 28, 9:20 AM)64% (Dec 28, 12:50 PM)29.39 "Hg (Dec 27, 1:20 PM)
Average42 °F85%30.05 "Hg
* Reported Dec 14 12:20 AM — Dec 29 12:20 AM, Mülheim, Weather by CustomWeather, © 2014

Note: Actual official high and low records may vary slightly from our data, if they occured in-between our weather recording intervals... More about our weather records

Advertising

Mülheim weather history for previous 24 hours

 ConditionsComfort  
Time TempWeatherWind HumidityBarometerVisibility
12:20 AM
Dec 29
25 °FPassing clouds.6 mph86%30.54 "HgN/A
11:50 PM
Dec 28
25 °FPassing clouds.5 mph93%30.54 "HgN/A
11:20 PM23 °FPassing clouds.6 mph93%30.54 "HgN/A
10:20 PM23 °FPassing clouds.2 mph93%30.54 "HgN/A
9:50 PM23 °FPassing clouds.2 mph93%30.54 "HgN/A
9:20 PM19 °FPassing clouds.5 mph93%30.51 "HgN/A
8:50 PM21 °FClear.2 mph93%30.51 "Hg10 mi
8:20 PM21 °FClear.1 mph93%30.51 "Hg10 mi
7:50 PM21 °FClear.1 mph93%30.51 "Hg10 mi
7:20 PM23 °FClear.5 mph86%30.51 "Hg10 mi
6:50 PM23 °FClear.3 mph86%30.48 "Hg10 mi
6:20 PM23 °FClear.5 mph86%30.45 "Hg10 mi
5:50 PM23 °FClear.6 mph80%30.42 "Hg10 mi
5:20 PM25 °FClear.5 mph74%30.42 "Hg10 mi
4:50 PM27 °FClear.6 mph69%30.42 "Hg10 mi
4:20 PM27 °FSunny.7 mph74%30.39 "Hg10 mi
3:50 PM28 °FSunny.8 mph69%30.39 "Hg10 mi
3:20 PM28 °FSunny.9 mph69%30.36 "Hg10 mi
2:50 PM28 °FSunny.9 mph69%30.33 "Hg10 mi
2:20 PM28 °FSunny.10 mph64%30.33 "Hg10 mi
1:50 PM28 °FSunny.6 mph64%30.30 "Hg10 mi
1:20 PM28 °FSunny.6 mph64%30.30 "Hg10 mi
12:50 PM28 °FSunny.8 mph64%30.30 "Hg10 mi
12:20 PM27 °FSunny.9 mph69%30.27 "Hg10 mi
11:50 AM27 °FSunny.8 mph69%30.27 "Hg10 mi
11:20 AM25 °FSunny.7 mph74%30.24 "Hg10 mi
10:50 AM25 °FSunny.7 mph74%30.24 "Hg10 mi
10:20 AM21 °FSunny.5 mph86%30.21 "Hg10 mi
9:50 AM19 °FSunny.7 mph86%30.18 "Hg10 mi
9:20 AM18 °FSunny.5 mph86%30.15 "Hg10 mi
8:50 AM19 °FSunny.5 mph86%30.12 "Hg10 mi
8:20 AM19 °FClear.3 mph86%30.09 "Hg10 mi
7:50 AM19 °FClear.7 mph86%30.07 "Hg10 mi
7:20 AM21 °FClear.6 mph80%30.04 "Hg10 mi
6:50 AM21 °FClear.8 mph86%30.01 "Hg10 mi
6:20 AM21 °FClear.6 mph80%29.98 "Hg10 mi
5:50 AM23 °FClear.5 mph80%29.95 "Hg10 mi
5:20 AM23 °FClear.5 mph80%29.92 "Hg10 mi
4:20 AM23 °FClear.6 mph80%29.89 "Hg10 mi
3:50 AM25 °FClear.7 mph80%29.86 "Hg10 mi
3:20 AM25 °FClear.7 mph80%29.83 "Hg10 mi
2:50 AM27 °FClear.7 mph74%29.80 "Hg10 mi
2:20 AM27 °FClear.9 mph80%29.77 "Hg10 mi
1:50 AM28 °FClear.7 mph74%29.77 "Hg10 mi
1:20 AM28 °FClear.8 mph74%29.74 "Hg10 mi
Weather by CustomWeather, © 2014

See weather overviewHow to use our weather pages